Regional Weather Roundup
Issued by NWS Northern Indiana

Home | Current Version | Previous Version | Text Only | Print | Product List | Glossary Off
Versions: 1 2 3 4 5 6 7 8 9 10 11 12 13 14 15 16 17 18 19 20 21 22 23 24 25 26 27 28 29 30 31 32 33 34 35 36 37 38 39 40 41 42 43 44 45 46 47 48 49 50

000
ASUS43 KIWX 230910
RWRIWX

KIWX WEATHER ROUNDUP
NATIONAL WEATHER SERVICE NORTHERN INDIANA
500 AM EDT FRI JUN 23 2017

NOTE: "FAIR" INDICATES FEW OR NO CLOUDS BELOW 12,000 FEET WITH NO
SIGNIFICANT WEATHER AND/OR OBSTRUCTIONS TO VISIBILITY.

* THESE STATIONS ARE NOT UNDER NWS QUALITY CONTROL. THEY ALSO MAY NOT
  REPORT WEATHER SUCH AS PRECIPITATION OR FOG.

INZ001>027-231000-
NORTHERN INDIANA

CITY           SKY/WX    TMP DP  RH WIND       PRES   REMARKS
GARY*          CLOUDY    76  71  84 SW5       29.66S
VALPARAISO     CLOUDY    74  72  93 SW10      29.68S
MICHIGAN CITY* CLOUDY    72  72 100 SW8       29.67S
LAPORTE*       CLOUDY    72  71  96 SW8G16    29.68F FOG
KNOX*          CLOUDY    72  72 100 SW9       29.68S
SOUTH BEND     CLOUDY    71  71 100 SW10      29.67S
GOSHEN         CLOUDY    71  68  90 SW9       29.68S FOG
MONTICELLO*    DRIZZLE   72  71  96 SW6       29.68F
LOGANSPORT*    HVY RAIN  72  70  94 SW10      29.69F
ROCHESTER*     CLOUDY    73  73 100 SW8       29.69S FOG
WARSAW*        CLOUDY    70  70 100 SW6       29.69S FOG
AUBURN*        DRIZZLE   70  68  94 SW6       29.70S
FORT WAYNE     LGT RAIN  72  70  93 SW13      29.70F
HUNTINGTON*    CLOUDY    71  70  96 SW5       29.70S FOG
PERU/GRISSOM   TSTM      72  72 100 SW13      29.69S FOG
MARION*        CLOUDY    72  70  94 SW15      29.71F FOG

$$
INZ028>050-231000-
CENTRAL INDIANA

CITY           SKY/WX    TMP DP  RH WIND       PRES   REMARKS
LAFAYETTE      LGT RAIN  72  72 100 SW10      29.68S FOG
KOKOMO*        CLOUDY    72  71  97 S16       29.70F
MUNCIE*        CLOUDY    74  71  91 SW10      29.73F
INDIANAPOLIS   CLOUDY    75  72  90 S15       29.72F

$$
MIZ043>046-050>051-056>058-064>065-071>073-077>080-231000-
SOUTHWEST LOWER MICHIGAN

CITY           SKY/WX    TMP DP  RH WIND       PRES   REMARKS
BATTLE CREEK   CLOUDY    71  70  96 SW9       29.66F FOG
BENTON HARBOR  CLOUDY    75  69  81 SW10      29.65F
COLDWATER*     CLOUDY    71  69  95 SW6       29.67F
HILLSDALE*     LGT RAIN  70  66  88 SW9       29.68F
HOLLAND        LGT RAIN  73  70  90 SW16G24   29.63S
GRAND RAPIDS   CLOUDY    72  71  97 SW14      29.63F FOG
KALAMAZOO      LGT RAIN  71  68  90 S8        29.66F FOG
STURGIS*       RAIN      70  69  98 S7        29.67S
THREE RIVERS*  DRIZZLE   70  69  98 SW7       29.67F

$$
OHZ001>008-015>018-024>025-231000-
NORTHWEST OHIO

CITY           SKY/WX    TMP DP  RH WIND       PRES   REMARKS
WAUSEON*       CLOUDY    72  70  94 S8        29.69F
DEFIANCE       LGT RAIN  69  68  96 S9        29.69S
FINDLAY        CLOUDY    72  67  84 S12       29.70F
TOLEDO EXPRESS CLOUDY    71  69  93 S7        29.68F
TOLEDO METCALF CLOUDY    72  69  90 S13       29.70F
LIMA           CLOUDY    71  70  96 S13       29.72F

$$
AND FOR LAKE MICHIGAN COASTAL AND OPEN LAKE BUOY OBSERVATIONS

STATION/POSITION TEMP    WIND        PRES    VSBY  WAVE
                 AIR SEA DIR/SP/G                  HT/PER
                 (F)     (DEG/KT/KT) (MB)    (MI)  (FT/S)
CALUMET HARBOR    75     210/  6/ 12 1003.7F
MICHIGAN CITY     74     200/ 15/ 18   N/A
BURNS HARBOR      74     220/ 11/ 17 1004.7F
SOUTH LAKE BUOY   63 61   20/  8/ 12 1003.5R         2/ 4
4 MI NW BRIDGMAN  71 69  230/ 10/ 12 1003.9          2/ 3
MICHIGAN CITY     71 68  230/  8/ 10   N/A           1/ 3

$$
&&




USA.gov is the U.S. government's official web portal to all federal, state and local government web resources and services.